Location: Eexterzandvoort
(53.0303°N, 6.7884°E)
Time: 23:40:15
(UTC+00:00)

Cosmos 405 Rocket - Pass Details

Date: 19 May 2025
Orbit: 414 x 448 km, 81.2° (Epoch: 15 June)

Event Time Altitude Azimuth Distance (km) Brightness Sun altitude
Rises 21:37:19 0° 351° (N) 2,464 7.7 -13.1°
Reaches altitude 10° 21:39:30 10° 359° (N) 1,582 6.2 -13.2°
Maximum altitude 21:42:47 41° 71° (ENE) 660 3.1 -13.4°
Enters shadow 21:44:29 23° 129° (SE) 988 3.6 -13.5°
